Regional Weather Roundup
Issued by NWS

Home | Current Version | Previous Version | Graphics & Text | Print | Product List | Glossary On
Versions: 1 2 3 4 5 6 7 8 9 10 11 12 13 14 15 16 17 18 19 20 21 22 23 24 25 26 27 28 29 30 31 32 33 34 35 36 37 38 39 40 41 42 43 44 45 46 47 48 49 50
000
ASUS43 KOAX 290602
RWRNE

WEATHER ROUNDUP FOR NEBRASKA
NATIONAL WEATHER SERVICE OMAHA NE
100 AM CDT WED MAR 29 2017

NOTES: SATELLITE DATA IS BEING USED TO AUGMENT CLOUD COVER ABOVE
       12000 FEET.
       "FAIR" INDICATES FEW OR NO CLOUDS BELOW 12,000 FEET WITH NO
       SIGNIFICANT WEATHER AND/OR OBSTRUCTIONS TO VISIBILITY.

  * THESE STATIONS DO NOT REPORT WEATHER SUCH AS RAIN...SNOW OR FOG.

NEZ001>004-019>022-054>056-290700-
NEBRASKA PANHANDLE

CITY           SKY/WX    TMP DP  RH WIND       PRES   REMARKS
SCOTTSBLUFF    CLOUDY    40  37  89 NE5       30.11S
6HR MIN TEMP:  39; 6HR MAX TEMP:  44; 6HR PCP:  0.08;

ALLIANCE       CLOUDY    38  37  97 E3        30.11S
6HR MIN TEMP:  37; 6HR MAX TEMP:  41; 6HR PCP:  0.14;

CHADRON        CLOUDY    41  38  89 CALM      30.13F
6HR MIN TEMP:  40; 6HR MAX TEMP:  45; 6HR PCP:  0.02;

KIMBALL        CLOUDY    37  37 100 N7        30.07F WCI  31
SIDNEY         CLOUDY    38  36  92 NE14      30.06F WCI  30
6HR MIN TEMP:  38; 6HR MAX TEMP:  41; 6HR PCP:  0.05;

$$

NEZ057>060-069>072-079>082-290700-
SOUTHWEST NEBRASKA

CITY           SKY/WX    TMP DP  RH WIND       PRES   REMARKS
NORTH PLATTE   LGT RAIN  44  41  89 N7        30.09S FOG
6HR MIN TEMP:  43; 6HR MAX TEMP:  46; 6HR PCP:  0.26;

IMPERIAL       LGT RAIN  40  38  93 NE12      30.06S WCI  33
6HR MIN TEMP:  40; 6HR MAX TEMP:  43; 6HR PCP:  0.17;

LEXINGTON      LGT RAIN  43  41  93 NE12      30.05F
MCCOOK         LGT RAIN  42  42 100 NE15      30.03F FOG
6HR MIN TEMP:  42; 6HR MAX TEMP:  45; 6HR PCP:  0.14;

$$

NEZ005>010-023>029-035>040-094-290700-
NORTH CENTRAL NEBRASKA

CITY           SKY/WX    TMP DP  RH WIND       PRES   REMARKS
VALENTINE      LGT RAIN  42  40  92 CALM      30.13S
6HR MIN TEMP:  42; 6HR MAX TEMP:  43; 6HR PCP:  0.09;

AINSWORTH      DRIZZLE   42  42 100 CALM      30.12S
BROKEN BOW     LGT RAIN  44  41  89 NE8       30.08S
6HR MIN TEMP:  44; 6HR MAX TEMP:  47; 6HR PCP:  0.07;

O`NEILL        CLOUDY    47  40  76 NE5       30.11R
ORD            LGT RAIN  44  41  89 CALM      30.09R FOG
6HR MIN TEMP:  44; 6HR MAX TEMP:  49; 6HR PCP:  0.02;

THEDFORD       LGT RAIN  43  42  97 NE6       30.13R
$$

NEZ041-046>049-061>064-073>077-083>087-290700-
SOUTH CENTRAL NEBRASKA

CITY           SKY/WX    TMP DP  RH WIND       PRES   REMARKS
GRAND ISLAND   LGT RAIN  43  43 100 NE8       30.07S FOG
6HR MIN TEMP:  43; 6HR MAX TEMP:  46; 6HR PCP:  0.12;

AURORA         CLOUDY    43  43 100 NE10      30.06S FOG
HASTINGS       LGT RAIN  43  41  93 E14       30.05F FOG
6HR MIN TEMP:  43; 6HR MAX TEMP:  46; 6HR PCP:  0.32;

HEBRON         DRIZZLE   44  43  97 NE12      30.02F
HOLDREGE       DRIZZLE   42  41  95 NE15      30.02F
KEARNEY *      CLOUDY    43  39  87 NE13      30.06S
YORK           LGT RAIN  45  45 100 NE12      30.07S
$$

NEZ011>018-030>034-042>045-290700-
NORTHEAST NEBRASKA

CITY           SKY/WX    TMP DP  RH WIND       PRES   REMARKS
NORFOLK        CLOUDY    46  41  82 E6        30.10R
6HR MIN TEMP:  45; 6HR MAX TEMP:  53;

ALBION         DRIZZLE   46  41  85 NE5       30.09F
FREMONT        DRIZZLE   47  43  87 NE3       30.11R
TEKAMAH        CLOUDY    47  42  83 NE7       30.11R
6HR MIN TEMP:  47; 6HR MAX TEMP:  51;

WAYNE          CLOUDY    45  44  96 CALM      30.10S
$$

NEZ050>053-065>068-078-088>093-290700-
SOUTHEAST NEBRASKA

CITY           SKY/WX    TMP DP  RH WIND       PRES   REMARKS
LINCOLN        LGT RAIN  46  44  93 NE9       30.08F FOG
6HR MIN TEMP:  46; 6HR MAX TEMP:  49; 6HR PCP:  0.04;

OMAHA EPPLEY   CLOUDY    49  41  74 E9        30.10R
6HR MIN TEMP:  49; 6HR MAX TEMP:  51; 6HR PCP: TRACE;

BEATRICE       RAIN      46  46  97 NE12      30.03F
FALLS CITY     CLOUDY    51  47  86 NE7       30.02F
6HR MIN TEMP:  51; 6HR MAX TEMP:  53; 6HR PCP: TRACE;

NEBRASKA CITY  RAIN      47  46  95 NE8       30.06F
PLATTSMOUTH    RAIN      48  41  78 E5        30.09S
$$

NEZ044-045-051>053-067-290700-
OMAHA AREA

CITY           SKY/WX    TMP DP  RH WIND       PRES   REMARKS
OMAHA EPPLEY   CLOUDY    49  41  74 E9        30.10R
6HR MIN TEMP:  49; 6HR MAX TEMP:  51; 6HR PCP: TRACE;

FREMONT        DRIZZLE   47  43  87 NE3       30.11R
MILLARD        CLOUDY    51  44  76 E3        30.10S
OFFUTT AFB     CLOUDY    48  42  80 CALM      30.09R
PLATTSMOUTH    RAIN      48  41  78 E5        30.09S
WAHOO          DRIZZLE   46  43  90 NE7       30.09S
$$



USA.gov is the U.S. government's official web portal to all federal, state and local government web resources and services.